Wilbur Observed Data For Previous 48 Hours

Caption
Day and Hour Reservoir Elevation (behind dam)* Tailwater Elevation (below dam)* Average Hourly Discharge*
12/16/2018 2 AM EST 1,648.12 1,583.23 242
12/16/2018 3 AM EST 1,647.84 1,583.22 240
12/16/2018 4 AM EST 1,647.55 1,583.23 237
12/16/2018 5 AM EST 1,647.24 1,583.21 235
12/16/2018 6 AM EST 1,646.95 1,583.20 232
12/16/2018 7 AM EST 1,646.63 1,583.19 230
12/16/2018 8 AM EST 1,646.32 1,583.17 225
12/16/2018 9 AM EST 1,646.02 1,583.16 224
12/16/2018 10 AM EST 1,647.22 1,583.20 227
12/16/2018 11 AM EST 1,648.43 1,583.24 239
12/16/2018 12 PM EST 1,648.21 1,583.23 244
12/16/2018 1 PM EST 1,647.91 1,583.21 240
12/16/2018 2 PM EST 1,647.61 1,583.21 238
12/16/2018 3 PM EST 1,647.29 1,583.19 235
12/16/2018 4 PM EST 1,646.97 1,583.18 232
12/16/2018 5 PM EST 1,646.66 1,583.17 230
12/16/2018 6 PM EST 1,646.35 1,583.16 226
12/16/2018 7 PM EST 1,646.04 1,583.15 224
12/16/2018 8 PM EST 1,647.23 1,583.19 228
12/16/2018 9 PM EST 1,648.46 1,583.24 239
12/16/2018 10 PM EST 1,648.24 1,583.23 244
12/16/2018 11 PM EST 1,647.96 1,583.22 240
12/17/2018 12 AM EST 1,647.65 1,583.21 239
12/17/2018 1 AM EST 1,647.35 1,583.20 235
12/17/2018 2 AM EST 1,647.05 1,583.19 233
12/17/2018 3 AM EST 1,646.76 1,583.19 230
12/17/2018 4 AM EST 1,646.45 1,583.18 227
12/17/2018 5 AM EST 1,646.16 1,583.18 225
12/17/2018 6 AM EST 1,645.85 1,583.17 221
12/17/2018 7 AM EST 1,647.09 1,583.22 226
12/17/2018 8 AM EST 1,648.30 1,583.27 237
12/17/2018 9 AM EST 1,649.03 1,583.29 246
12/17/2018 10 AM EST 1,648.72 1,583.25 248
12/17/2018 11 AM EST 1,648.42 1,583.22 245
12/17/2018 12 PM EST 1,648.11 1,583.20 242
12/17/2018 1 PM EST 1,649.15 1,584.27 246
12/17/2018 2 PM EST 1,649.25 1,585.74 1,695
12/17/2018 3 PM EST 1,649.30 1,585.62 1,700
12/17/2018 4 PM EST 1,648.89 1,585.76 1,715
12/17/2018 5 PM EST 1,648.62 1,585.75 1,759
12/17/2018 6 PM EST 1,648.58 - 999.00 1,756
12/17/2018 7 PM EST 1,648.56 1,585.78 1,754
12/17/2018 8 PM EST 1,648.71 1,585.54 1,636
12/17/2018 9 PM EST 1,648.89 1,585.58 1,616
12/17/2018 10 PM EST 1,649.06 1,585.57 1,621
12/17/2018 11 PM EST 1,649.03 1,585.83 1,757
12/18/2018 12 AM EST 1,648.98 1,585.84 1,766
12/18/2018 1 AM EST 1,648.95 - 999.00 1,767
12/18/2018 2 AM EST 1,648.23 - 999.00 1,763
12/18/2018 3 AM EST 1,647.67 - 999.00 1,755
12/18/2018 4 AM EST 1,647.16 - 999.00 1,745
12/18/2018 5 AM EST 1,646.64 - 999.00 1,736
12/18/2018 6 AM EST 1,646.11 1,585.82 1,734
12/18/2018 7 AM EST 1,645.59 1,585.84 1,726

Elevations are in feet above sea level. Discharges are in cubic feet per second and are reported at the end of the hour.